Location: Bernay
(48.6766°N, 2.9386°E)
Time: 09:00:13
(UTC+00:00)

DNEPR-1 R/B - Pass Details

Date: 12 January 2026
Orbit: 586 x 1327 km, 64.6° (Epoch: 15 February)

Event Time Altitude Azimuth Distance (km) Brightness Sun altitude
Rises 18:05:10 0° 191° (SSW) 3,006 7.4 -17.4°
Reaches altitude 10° 18:07:44 10° 182° (S) 2,020 6.4 -17.8°
Maximum altitude 18:11:41 32° 119° (ESE) 1,046 4.3 -18.4°
Enters shadow 18:11:42 32° 119° (ESE) 1,046 4.3 -18.4°
